Wind_Speed
62 61 59 54 50 48 47 46 46 45 45 46 45 44 43 43 43 41 41 40 39 37 37 36 34 33 31 29 28 27 26 25 23 22 22 22 21 21 20 21 21 22 22 23
63 62 56 53 51 49 48 48 47 47 47 47 47 47 46 46 46 44 43 43 42 41 40 39 37 35 34 32 31 30 29 28 27 26 25 24 24 23 23 23 24 25 25 25
62 58 55 54 52 50 49 48 47 48 47 48 49 49 48 47 47 47 46 45 45 43 42 41 40 38 37 35 34 33 32 31 30 29 28 27 26 26 26 27 27 27 27 28
58 57 55 54 53 51 50 48 47 47 48 49 51 52 49 48 48 48 47 47 46 45 44 43 42 41 39 38 37 37 36 35 33 32 31 30 30 29 30 31 30 30 30 31
60 59 57 55 51 50 49 48 48 48 49 51 52 54 51 50 49 48 48 48 47 46 45 45 44 43 42 41 40 39 39 37 36 35 34 33 33 33 34 33 33 33 33 34
58 58 56 53 51 50 50 50 50 50 52 55 53 56 54 51 49 48 48 48 48 47 47 46 46 45 44 43 43 42 41 40 39 38 37 36 35 36 36 36 36 36 36 37
60 59 58 56 55 55 54 54 55 56 57 58 56 58 55 50 48 48 48 48 48 48 48 47 47 47 46 46 45 44 43 42 41 41 40 39 38 39 39 39 39 39 40 40
60 60 59 58 58 56 56 57 58 58 58 56 56 57 52 50 49 47 47 47 48 48 48 48 47 48 48 48 47 46 46 45 44 44 43 42 41 41 41 42 42 42 43 43
58 56 56 58 57 57 56 57 55 56 57 56 57 55 52 50 50 48 46 46 46 47 48 48 48 49 49 49 49 49 48 47 47 46 46 45 45 44 44 44 45 45 45 46
56 55 56 57 58 59 58 56 57 58 57 57 56 54 50 49 49 48 47 46 45 46 48 48 49 49 49 50 50 50 50 50 49 49 48 47 47 47 47 47 47 47 47 48
57 58 58 59 60 58 59 61 61 60 60 58 56 52 48 48 48 48 47 46 46 46 47 49 50 50 50 50 50 50 50 50 50 50 49 49 49 49 49 49 49 49 50 50
58 59 60 59 58 58 59 59 59 60 60 59 58 51 47 47 48 46 46 46 45 45 46 47 48 49 49 49 49 49 50 50 50 51 51 50 50 50 50 50 51 51 52 52
58 61 62 63 62 61 61 60 59 58 57 57 57 51 47 49 48 46 44 43 43 43 43 44 45 46 47 48 49 49 49 50 51 51 51 52 52 52 52 52 52 52 53 53
57 61 62 61 58 57 60 60 60 60 60 60 58 52 50 49 47 45 44 42 42 42 42 43 44 45 46 47 48 49 49 50 50 50 51 51 51 52 52 52 53 53 53 53
56 58 58 57 57 56 56 56 56 57 57 57 54 53 49 47 46 45 44 43 43 42 43 43 44 46 46 47 48 49 49 50 50 51 51 52 52 52 53 53 54 54 54 54
56 56 56 57 57 57 57 55 55 54 54 54 54 53 47 48 48 47 46 45 45 44 44 45 45 46 46 47 48 48 49 50 50 51 51 52 52 53 53 54 54 55 55 55
53 55 56 57 57 58 61 57 56 56 56 55 55 49 46 48 48 47 47 47 47 46 47 47 48 47 47 48 48 48 49 49 50 51 52 52 53 53 53 54 54 55 56 56
50 51 53 54 56 61 57 53 54 55 55 54 53 49 48 48 48 48 48 49 48 48 48 48 48 48 48 49 49 49 49 50 50 51 51 52 53 53 54 54 55 56 57 58
50 50 51 53 56 57 54 52 52 53 54 51 51 48 48 50 51 50 48 48 49 48 49 49 49 50 50 50 50 51 51 51 52 52 52 53 54 54 55 56 57 57 58 59
50 50 51 53 56 57 50 48 50 53 53 46 48 48 49 51 53 48 46 47 48 49 49 50 51 51 51 51 52 52 52 53 53 53 54 54 55 55 56 57 57 58 59 59
53 53 54 54 55 53 49 49 50 54 46 43 46 47 49 51 50 48 48 49 49 50 51 51 51 51 52 52 52 53 53 53 54 55 55 56 56 57 57 57 58 58 59 60
52 52 53 53 53 51 49 50 50 47 44 45 44 44 46 48 49 50 51 51 51 51 51 51 52 52 52 53 53 53 54 54 55 55 55 56 57 57 58 58 59 59 59 60
52 51 50 51 49 46 46 46 45 44 44 45 45 44 44 46 47 49 50 50 51 51 52 52 52 53 53 53 53 53 53 54 55 56 56 57 57 57 58 58 59 59 59 60
51 50 51 50 49 48 47 47 46 45 44 44 45 45 45 46 47 49 50 51 51 50 50 51 51 52 52 53 53 54 54 55 55 56 56 57 57 57 57 58 58 59 59 60
50 49 49 49 48 48 48 47 47 47 47 46 47 47 47 47 48 49 50 50 50 50 50 50 51 52 52 53 53 53 54 54 55 55 56 56 56 56 57 57 58 59 60 60
50 49 49 48 46 46 45 45 46 47 47 48 48 48 48 48 48 48 49 49 50 50 50 50 50 51 52 52 52 53 53 54 54 54 54 55 56 56 57 57 58 59 60 61
Wind_Direction
228 230 231 233 235 236 236 235 235 236 236 237 236 234 232 233 231 229 231 231 231 230 230 231 232 233 234 235 236 238 240 243 245 247 250 252 255 259 263 266 269 272 274 278
228 230 231 232 232 234 234 234 234 235 236 238 237 235 234 233 232 230 231 232 232 232 233 234 234 235 236 237 239 240 242 245 247 249 252 255 259 263 266 268 271 273 276 279
232 232 231 230 232 234 234 235 236 237 237 239 239 237 235 234 234 233 232 234 234 234 235 236 237 237 238 239 241 242 243 245 248 251 254 258 261 264 267 269 271 274 278 280
230 230 230 231 233 235 236 236 236 237 237 238 239 239 235 236 236 235 235 236 236 237 237 238 239 239 240 240 241 243 244 246 249 252 255 259 261 264 267 269 273 276 278 280
228 228 229 231 232 234 235 236 237 237 238 239 239 240 234 235 237 238 238 239 239 239 239 240 241 241 241 241 243 244 246 248 250 253 256 259 262 264 267 270 273 275 278 280
226 228 229 231 231 232 232 234 236 237 238 238 238 241 238 235 237 240 241 241 241 242 242 242 242 242 243 243 244 245 247 249 252 255 257 260 263 265 267 270 272 274 277 280
223 225 226 226 227 228 229 231 233 235 237 239 239 241 241 238 238 241 243 244 245 244 244 244 244 245 245 245 246 247 249 251 253 255 258 261 263 266 268 270 272 274 277 279
226 226 228 228 229 231 233 234 236 239 241 243 244 245 245 245 243 243 245 246 247 247 247 246 245 246 246 247 248 249 250 252 254 256 259 261 263 266 268 269 272 274 276 278
227 230 230 230 230 230 231 233 236 239 241 243 244 245 244 245 247 246 246 247 248 249 249 248 248 247 248 248 249 250 251 253 255 257 259 261 263 266 268 270 272 274 276 277
227 228 229 229 228 228 230 233 235 237 240 242 244 245 246 247 249 250 250 249 249 250 250 249 249 249 249 250 250 251 252 254 255 257 260 262 264 266 267 269 271 273 275 277
225 227 228 228 229 230 231 232 234 237 240 243 245 246 248 249 250 251 252 252 250 250 250 249 249 250 250 251 252 253 253 254 256 257 259 261 263 265 267 269 270 272 274 275
223 225 227 229 230 231 233 236 238 241 244 246 248 247 248 250 250 251 251 251 251 251 251 251 251 251 251 251 252 253 254 255 256 258 259 261 263 265 267 268 270 271 273 275
225 226 227 228 228 229 231 233 237 240 243 246 247 244 242 246 249 249 250 251 251 251 250 250 249 250 250 250 251 253 254 255 256 258 259 261 263 264 266 267 269 270 272 274
230 232 231 232 233 234 235 235 236 238 240 243 245 244 241 244 247 249 251 251 250 249 248 247 247 247 248 250 251 252 254 255 256 258 259 260 262 263 265 267 268 270 272 273
229 232 233 235 236 238 239 240 241 243 246 248 249 248 245 247 249 250 250 250 249 248 247 246 246 247 247 248 250 251 253 254 256 258 259 260 262 264 265 267 268 270 272 274
229 231 232 234 235 237 239 239 240 242 244 247 247 246 243 245 247 248 248 247 247 246 246 245 246 247 247 248 250 251 253 254 256 257 259 261 262 264 266 267 269 271 273 274
231 232 233 234 235 237 238 237 239 242 243 246 247 247 246 247 247 247 247 247 247 246 246 246 246 246 247 249 250 252 253 255 257 258 260 261 263 264 266 268 269 271 273 275
232 234 235 236 237 239 239 239 241 243 244 246 249 249 248 249 248 247 247 249 249 249 248 248 249 249 249 250 251 252 254 256 257 259 260 262 263 265 267 268 270 272 274 276
227 229 232 234 238 241 240 240 242 245 246 246 249 250 250 250 249 248 249 250 251 251 250 250 251 251 252 252 253 254 255 257 258 260 261 263 264 266 268 270 272 274 275 277
226 227 229 232 236 240 240 241 242 244 245 245 248 248 248 249 250 249 250 251 251 250 251 251 252 252 253 254 255 256 256 258 259 261 262 264 265 267 269 271 273 274 275 277
227 228 230 233 237 241 240 241 242 244 247 247 247 248 249 250 252 251 250 251 251 251 251 252 253 254 254 255 256 258 258 260 261 262 263 265 266 268 270 271 273 274 276 277
231 234 235 237 240 241 241 242 244 249 250 250 249 248 249 251 251 251 252 252 253 253 253 254 255 255 256 257 258 259 261 261 262 263 265 266 268 269 270 272 273 275 276 277
233 236 239 242 245 247 247 249 250 250 251 251 251 250 250 251 252 252 253 254 254 254 254 255 256 257 258 259 260 260 261 262 264 265 266 267 268 270 271 272 273 274 275 277
234 235 238 239 240 242 243 245 246 248 249 249 249 250 249 249 250 251 252 253 255 255 256 256 257 258 259 260 260 261 262 264 265 266 267 268 269 270 271 272 273 274 276 277
237 238 240 241 241 242 243 244 245 247 248 249 249 249 250 250 250 251 252 254 255 256 257 258 258 259 260 260 262 263 264 265 266 267 268 268 269 270 271 272 274 275 276 277
236 237 239 240 241 243 244 246 246 247 247 248 249 249 249 250 251 252 253 254 256 257 258 259 260 261 261 262 263 263 264 265 266 267 268 269 270 270 271 273 274 275 277 278
Height
5722 5730 5739 5749 5756 5761 5767 5772 5777 5782 5785 5789 5793 5799 5804 5807 5812 5817 5822 5826 5831 5835 5837 5840 5843 5846 5849 5852 5854 5856 5858 5859 5860 5862 5862 5863 5864 5864 5865 5865 5865 5865 5865 5865
5712 5722 5735 5740 5745 5751 5757 5763 5768 5772 5776 5780 5785 5790 5795 5800 5805 5810 5815 5819 5823 5827 5830 5834 5837 5840 5844 5846 5849 5850 5852 5854 5855 5856 5857 5859 5860 5860 5861 5861 5860 5860 5860 5860
5706 5721 5726 5731 5737 5743 5749 5755 5760 5764 5767 5771 5776 5781 5787 5793 5798 5803 5807 5811 5815 5820 5824 5827 5830 5834 5837 5840 5843 5845 5846 5848 5849 5851 5852 5853 5854 5855 5855 5855 5855 5855 5854 5854
5697 5707 5715 5721 5729 5735 5742 5747 5751 5754 5758 5762 5767 5772 5781 5785 5790 5796 5800 5804 5808 5813 5817 5820 5824 5827 5830 5833 5835 5838 5840 5841 5843 5844 5846 5847 5848 5849 5849 5849 5849 5849 5848 5848
5688 5698 5705 5712 5723 5728 5734 5738 5741 5744 5747 5752 5758 5763 5773 5777 5782 5789 5794 5797 5801 5805 5809 5812 5816 5820 5823 5825 5828 5830 5832 5834 5836 5838 5839 5840 5841 5842 5842 5842 5842 5842 5841 5841
5680 5688 5696 5706 5714 5718 5723 5727 5731 5733 5735 5741 5751 5752 5761 5771 5777 5781 5786 5790 5793 5797 5801 5804 5808 5811 5814 5817 5820 5822 5824 5827 5829 5830 5832 5833 5834 5834 5834 5835 5834 5834 5834 5833
5667 5676 5685 5694 5699 5705 5710 5716 5719 5720 5722 5733 5741 5740 5754 5765 5770 5774 5778 5781 5785 5788 5792 5795 5799 5802 5806 5808 5811 5814 5816 5818 5820 5822 5823 5825 5825 5826 5826 5826 5826 5826 5825 5824
5658 5667 5677 5685 5690 5697 5703 5706 5710 5714 5718 5726 5730 5734 5750 5757 5762 5766 5769 5773 5775 5779 5782 5786 5789 5792 5796 5799 5802 5805 5807 5809 5811 5813 5814 5815 5816 5817 5817 5817 5817 5817 5816 5815
5652 5662 5670 5676 5683 5688 5692 5696 5703 5705 5708 5714 5719 5729 5741 5747 5751 5756 5760 5763 5766 5769 5772 5775 5778 5782 5785 5788 5792 5795 5797 5799 5801 5803 5804 5805 5806 5807 5807 5807 5807 5807 5806 5805
5645 5652 5659 5665 5670 5675 5682 5688 5690 5693 5698 5703 5711 5721 5733 5740 5742 5746 5750 5753 5756 5758 5761 5764 5767 5770 5774 5777 5781 5784 5787 5789 5791 5792 5794 5795 5796 5796 5797 5797 5797 5796 5795 5794
5634 5641 5647 5651 5658 5667 5672 5674 5679 5684 5688 5695 5701 5714 5726 5729 5732 5735 5739 5741 5744 5747 5749 5752 5755 5759 5762 5766 5769 5773 5775 5778 5780 5782 5783 5784 5785 5785 5786 5786 5786 5785 5784 5783
5622 5628 5634 5642 5651 5656 5661 5667 5672 5676 5680 5686 5691 5706 5715 5718 5721 5724 5727 5730 5732 5735 5738 5741 5744 5748 5751 5755 5758 5761 5763 5766 5768 5770 5771 5772 5773 5774 5774 5774 5774 5773 5772 5771
5613 5617 5622 5627 5636 5643 5648 5655 5662 5667 5671 5674 5680 5697 5706 5706 5708 5712 5715 5718 5721 5724 5727 5730 5733 5736 5739 5742 5746 5749 5751 5754 5756 5758 5759 5760 5761 5762 5762 5762 5762 5761 5760 5759
5604 5607 5613 5620 5629 5637 5640 5646 5651 5654 5656 5663 5671 5684 5692 5695 5699 5701 5704 5707 5709 5712 5716 5718 5721 5724 5727 5730 5734 5736 5739 5741 5743 5745 5747 5748 5749 5749 5750 5750 5749 5749 5748 5746
5590 5596 5605 5614 5621 5626 5631 5637 5642 5645 5650 5656 5665 5672 5682 5686 5688 5690 5693 5695 5698 5701 5704 5707 5709 5712 5715 5718 5721 5724 5727 5729 5731 5733 5734 5735 5736 5737 5737 5737 5737 5736 5735 5734
5580 5588 5595 5602 5608 5613 5617 5623 5629 5635 5641 5646 5653 5660 5673 5674 5675 5677 5680 5683 5685 5689 5692 5695 5698 5700 5703 5706 5709 5712 5714 5717 5719 5720 5722 5723 5723 5724 5724 5724 5723 5723 5722 5720
5572 5579 5585 5590 5595 5597 5601 5613 5620 5625 5630 5636 5640 5653 5660 5660 5663 5666 5668 5670 5673 5677 5680 5683 5686 5689 5691 5694 5697 5700 5702 5704 5706 5707 5708 5709 5710 5710 5711 5710 5710 5709 5708 5707
5561 5568 5574 5579 5583 5583 5598 5608 5611 5615 5621 5627 5632 5640 5645 5648 5650 5652 5655 5658 5661 5665 5668 5670 5674 5677 5680 5682 5685 5687 5689 5691 5693 5694 5695 5696 5697 5697 5697 5696 5696 5695 5694 5692
5551 5557 5562 5566 5569 5575 5588 5596 5602 5604 5609 5618 5622 5628 5632 5634 5634 5639 5645 5647 5650 5653 5655 5658 5662 5665 5667 5670 5672 5675 5677 5678 5680 5681 5682 5682 5683 5683 5683 5682 5682 5681 5679 5678
5540 5546 5551 5555 5558 5564 5582 5590 5591 5592 5596 5609 5611 5616 5618 5618 5620 5631 5634 5634 5637 5639 5643 5646 5648 5652 5655 5657 5659 5661 5663 5665 5666 5667 5667 5668 5668 5669 5668 5668 5667 5666 5664 5663
5528 5533 5538 5544 5548 5557 5572 5575 5577 5579 5592 5600 5600 5603 5604 5606 5611 5618 5618 5620 5623 5626 5630 5632 5635 5639 5642 5643 5645 5648 5650 5651 5652 5652 5653 5653 5654 5654 5653 5653 5652 5650 5649 5647
5519 5525 5530 5535 5539 5551 5561 5562 5566 5573 5582 5583 5587 5590 5592 5595 5599 5602 5604 5607 5610 5614 5617 5620 5622 5625 5628 5630 5631 5634 5635 5636 5636 5638 5638 5638 5639 5638 5638 5637 5636 5635 5633 5632
5510 5518 5523 5528 5536 5546 5549 5554 5558 5563 5568 5571 5573 5577 5581 5583 5586 5589 5592 5594 5597 5600 5604 5606 5609 5611 5614 5615 5617 5619 5620 5621 5621 5622 5623 5623 5623 5623 5622 5621 5620 5619 5617 5616
5502 5508 5512 5518 5525 5532 5537 5541 5545 5550 5554 5557 5560 5564 5567 5570 5573 5576 5579 5581 5584 5587 5590 5592 5595 5597 5599 5600 5602 5604 5605 5605 5606 5607 5607 5607 5607 5606 5606 5605 5604 5603 5601 5599
5492 5497 5501 5507 5515 5520 5524 5529 5534 5537 5541 5544 5548 5551 5554 5557 5560 5563 5566 5568 5570 5573 5575 5578 5580 5582 5584 5585 5587 5588 5589 5590 5590 5591 5591 5591 5591 5590 5590 5589 5588 5586 5585 5583
5480 5486 5492 5498 5506 5510 5514 5518 5521 5525 5528 5532 5535 5538 5541 5544 5547 5550 5553 5555 5557 5559 5562 5564 5566 5567 5569 5570 5572 5572 5573 5574 5575 5575 5575 5575 5575 5574 5573 5572 5571 5569 5568 5566